This is the latest recevied weather packets stored in our database for station/object NK7E-1. If no packets are shown the sender has not sent any weather packets the latest 10 day(s).
| Time | Temp. | Humidity | Pressure | Rain* | Wind** | Luminosity | Snow |
|---|---|---|---|---|---|---|---|
| 1778111400 | 26.11° C | 18% | 1013.9 hPa | 0 mm | - | - | - |
| 1778110800 | 26.11° C | 18% | 1014 hPa | 0 mm | - | - | - |
| 1778110200 | 26.11° C | 18% | 1014 hPa | 0 mm | - | - | - |
| 1778109600 | 26.11° C | 18% | 1014 hPa | 0 mm | - | - | - |
| 1778109000 | 26.67° C | 17% | 1014.1 hPa | 0 mm | - | - | - |
| 1778108400 | 26.11° C | 17% | 1014.1 hPa | 0 mm | - | - | - |
| 1778107800 | 26.11° C | 17% | 1014.3 hPa | 0 mm | - | - | - |
| 1778107201 | 26.11° C | 18% | 1014.3 hPa | 0 mm | - | - | - |
| 1778106600 | 25.56° C | 17% | 1014.5 hPa | 0 mm | - | - | - |
| 1778106000 | 26.11° C | 18% | 1014.5 hPa | 0 mm | - | - | - |
| 1778105400 | 26.11° C | 19% | 1014.5 hPa | 0 mm | - | - | - |
| 1778104804 | 25.56° C | 18% | 1014.7 hPa | 0 mm | - | - | - |
| 1778104202 | 26.11° C | 16% | 1014.8 hPa | 0 mm | - | - | - |
| 1778103602 | 25.56° C | 18% | 1015 hPa | 0 mm | - | - | - |
| 1778103002 | 25° C | 19% | 1015.1 hPa | 0 mm | - | - | - |
| 1778102401 | 25° C | 18% | 1015.3 hPa | 0 mm | - | - | - |
| 1778101801 | 25° C | 19% | 1015.4 hPa | 0 mm | - | - | - |
| 1778101203 | 24.44° C | 22% | 1015.5 hPa | 0 mm | - | - | - |
| 1778100602 | 24.44° C | 22% | 1015.6 hPa | 0 mm | - | - | - |
| 1778100002 | 23.89° C | 22% | 1015.7 hPa | 0 mm | - | - | - |
| 1778099402 | 24.44° C | 23% | 1015.9 hPa | 0 mm | - | - | - |
| 1778098802 | 24.44° C | 25% | 1016 hPa | 0 mm | - | - | - |
| 1778098202 | 24.44° C | 26% | 1016 hPa | 0 mm | - | - | - |
| 1778097602 | 23.89° C | 26% | 1016.2 hPa | 0 mm | - | - | - |
| 1778097001 | 23.89° C | 27% | 1016.3 hPa | 0 mm | - | - | - |
* Rain latest hour (hover to see other rain measurements)
** Current wind speed in m/s (hover to see current wind gust speed)